Regional Weather Roundup
Issued by NWS Glasgow, MT

Home | Current Version | Previous Version | Text Only | Print | Product List | Glossary On
Versions: 1 2 3 4 5 6 7 8 9 10 11 12 13 14 15 16 17 18 19 20 21 22 23 24 25 26 27 28 29 30 31 32 33 34 35 36 37 38 39 40 41 42 43 44 45 46 47 48 49 50
000
ASUS45 KGGW 012215
RWRGGW
HOURLY WEATHER ROUNDUP FOR NORTHEAST MONTANA
NATIONAL WEATHER SERVICE GLASGOW MONTANA
300 PM MST SUN FEB 01 2015

NOTE: "FAIR" INDICATES FEW OR NO CLOUDS BELOW 12,000 FEET WITH NO
SIGNIFICANT WEATHER AND/OR OBSTRUCTIONS TO VISISBILITY.

NORTHEAST MONTANA


CITY           SKY/WX    TMP DP  RH WIND       PRES   REMARKS
GLASGOW        SUNNY     10   2  69 SE13      30.16F WCI  -5
PLENTYWOOD       N/A     10   2  69 S12         N/A  WCI  -5
WOLF POINT     SUNNY     15   4  61 SW7       30.23F
JORDAN           N/A     17   9  70 S13       30.12F
WINNETT          N/A     25  15  66 S14G26      N/A
SIDNEY         SUNNY      9  -9  43 S12       30.29F WCI  -6
GLENDIVE       SUNNY      9   1  72 S9        30.22F
MALTA            N/A     22  13  68 S7          N/A

FORT PECK REPORTS


CITY           SKY/WX    TMP DP  RH WIND       PRES   REMARKS
FORT PECK        N/A     14   8  77 SE12        N/A
THE PINES        N/A     18  10  71 S9          N/A

SOUTHEAST MONTANA


CITY           SKY/WX    TMP DP  RH WIND       PRES   REMARKS
BILLINGS       PTSUNNY   20  11  68 SE5       30.07F
MILES CITY     SUNNY     16   7  67 SE12      30.19F
BAKER          SUNNY     13   6  74 S8        30.20F
LIVINGSTON     CLOUDY    29  18  63 E7        29.97F

CENTRAL MONTANA


CITY           SKY/WX    TMP DP  RH WIND       PRES   REMARKS
HAVRE          PTSUNNY    6   0  76 E8        30.05F
LEWISTOWN      CLOUDY    31  16  54 E5        29.95F
GREAT FALLS    CLOUDY    29  20  69 S17       29.93F
CUT BANK       PTSUNNY   17  12  80 SE9       29.90F
HELENA         CLOUDY    25  15  66 CALM      30.04F
BUTTE          FLURRIES  29  24  82 N6        29.98F
BOZEMAN        CLOUDY    25  15  66 CALM      30.03F

WESTERN MONTANA


CITY           SKY/WX    TMP DP  RH WIND       PRES   REMARKS
MISSOULA       LGT SNOW  28  25  88 CALM      30.05F FOG
KALISPELL      NOT AVBL

NORTH DAKOTA


CITY           SKY/WX    TMP DP  RH WIND       PRES   REMARKS
WILLISTON      SUNNY      7  -7  52 SW9       30.28F
DICKINSON      SUNNY      6  -5  60 SW6       30.23F
MINOT          SUNNY      5 -10  50 SW12      30.32F WCI -11
BISMARCK       SUNNY      4 -12  48 W8        30.39F

SOUTHERN SASKATCHEWAN


CITY           SKY/WX    TMP DP  RH WIND       PRES   REMARKS
REGINA         CLOUDY     3  -4  72 SE13      30.18F WCI -14
MOOSE JAW      PTSUNNY   12   1  62 S8        30.15F
ESTEVAN        MOSUNNY    9  -2  61 SW12      30.25F WCI  -6
SWIFT CURRENT  MOSUNNY   12   7  79 SW16G23   30.01F WCI  -4



USA.gov is the U.S. government's official web portal to all federal, state and local government web resources and services.